Weather in Dolgoye

Russia / Belgorod Oblast     50°15′53″N   38°29′50″E
temp.,
°C
wind,
m/s
gust,
m/s
humid.,
%
clouds,
%
prec.,
mm/h
press.,
hPa
HPBL,
m
5 august, thu
thu500:00+18ne335535 0.0 101846
03:00+17ene22585 0.0 101822
06:00+17e2263100 0.0 101822
09:00+23sse23474 0.0 1017406
12:00+27s333659 0.0 10171985
15:00+28s2332100 0.0 10152482
18:00+27sse2340100 0.0 1015167
21:00+22e224437 0.0 101411
6 august, fri
fri600:00+21e48485 0.0 1014107
03:00+19ese410498 0.0 1013171
06:00+19ese511525 0.0 1012204
09:00+26sse6114256 0.0 1011538
12:00+31sse7935100 0.0 10111410
15:00+32s810305 0.0 10092229
18:00+31ese353727 0.0 1008342
21:00+29se5133429 0.0 1008364
7 august, sat
sat700:00+26se61633100 0.0 1008393
03:00+24se6163189 0.0 1008398
06:00+23se4133498 0.1 1009364
09:00+28se6113084 0.1 1009630
12:00+33se79257 0.0 10081509
15:00+35sse892278 0.0 10072808
18:00+32se51030100 0.0 1007386
21:00+25n1145100 0.3 100911
8 august, sun
sun800:00+25ese3437100 0.0 100953
03:00+26sse3835100 0.0 1009164
06:00+24nne1142100 0.0 101011
09:00+26nw1243100 0.0 1010125
12:00+31sse333197 0.0 10111243
15:00+27ese51036100 0.0 1012368
18:00+28ese6113570 0.0 1012519
21:00+23ene344854 0.0 101358
9 august, mon
mon900:00+21n33514 0.0 101434
03:00+20n36545 0.0 101395
06:00+20n37645 0.0 1013118
09:00+26n45470 0.0 1013473
12:00+31nnw32340 0.0 10131516
15:00+33nw34300 0.0 10122534
18:00+31nw46340 0.0 1012509
21:00+25nw512490 0.0 1013264